Date String (YYYY-MM-DD hh:mm:ss) UTC,Instrument flags,Ambient pressure (hPa),Sample flow (lpm),Bypass flow (lpm),Sample temperature (°C),Ambient temperature (°C),ASC tube jacket temperature (°C),LED temperature (°C),Box temperature (°C),Sample RH (%),Span deviation,Mass concentration (μg/m³),Mass concentration (μg/m³),Mass concentration (μg/m³)
DateTimeUTC,F1_M11,P_M11,Q1_M11,Q2_M11,T1_M11,T2_M11,T3_M11,T4_M11,T5_M11,U1_M11,ZSPAN_M11,X0_M11,X2_M11,X1_M11
2022-08-10 09:00:00,,0833.0,5.00,0.00,29.7,28.5,00.0,38.4,31.6,26.8,0000.0,0013.93,0005.76,0004.78
2022-08-10 09:01:00,,0833.0,5.01,0.00,29.7,28.6,00.0,38.5,31.6,26.8,0000.0,0014.22,0005.74,0004.76
2022-08-10 09:02:00,,0833.1,5.00,0.00,29.7,28.7,00.0,38.5,31.7,26.7,0000.0,0014.35,0005.77,0004.75
2022-08-10 09:03:00,,0833.0,5.00,0.00,29.7,28.7,00.0,38.5,31.7,26.6,0000.0,0014.79,0005.74,0004.75
2022-08-10 09:04:00,,0833.0,5.00,0.00,29.8,28.8,00.0,38.5,31.8,26.5,0000.0,0014.87,0005.72,0004.75
2022-08-10 09:05:00,,0833.1,5.00,0.00,29.8,28.8,00.0,38.5,31.7,26.4,0000.0,0014.97,0005.74,0004.75
2022-08-10 09:06:00,,0833.0,5.00,0.00,29.8,28.9,00.0,38.5,31.8,26.4,0000.0,0014.07,0005.75,0004.74
2022-08-10 09:07:00,,0833.0,4.99,0.00,29.8,28.6,00.0,38.5,31.7,26.4,0000.0,0014.84,0005.76,0004.73
2022-08-10 09:08:00,,0833.1,5.01,0.00,29.8,27.9,00.0,38.5,31.6,26.4,0000.0,0015.38,0005.77,0004.72
2022-08-10 09:09:00,,0833.1,5.00,0.00,29.8,27.6,00.0,38.5,31.5,26.4,0000.0,0015.44,0005.78,0004.71
2022-08-10 09:10:00,,0833.1,4.99,0.00,29.7,27.6,00.0,38.5,31.4,26.5,0000.0,0014.87,0005.79,0004.71
2022-08-10 09:11:00,,0833.1,5.01,0.00,29.6,27.6,00.0,38.5,31.4,26.5,0000.0,0014.12,0005.80,0004.71
2022-08-10 09:12:00,,0833.1,4.99,0.00,29.6,27.7,00.0,38.4,31.4,26.6,0000.0,0013.62,0005.82,0004.70
2022-08-10 09:13:00,,0833.0,5.00,0.00,29.6,27.9,00.0,38.4,31.4,26.5,0000.0,0013.72,0005.78,0004.69
2022-08-10 09:14:00,,0833.0,4.99,0.00,29.6,28.0,00.0,38.4,31.4,26.5,0000.0,0013.54,0005.77,0004.67
2022-08-10 09:15:00,,0833.0,4.99,0.00,29.6,28.1,00.0,38.4,31.5,26.5,0000.0,0013.36,0005.76,0004.66
2022-08-10 09:16:00,,0833.0,5.00,0.00,29.6,28.2,00.0,38.4,31.5,26.5,0000.0,0013.67,0005.73,0004.66
2022-08-10 09:17:00,,0833.0,5.01,0.00,29.6,28.3,00.0,38.5,31.5,26.6,0000.0,0013.83,0005.78,0004.68
2022-08-10 09:18:00,,0833.1,5.00,0.00,29.7,28.4,00.0,38.5,31.6,26.6,0000.0,0013.23,0005.79,0004.69
2022-08-10 09:19:00,,0833.0,4.99,0.00,29.7,28.5,00.0,38.5,31.6,26.6,0000.0,0012.43,0005.80,0004.70
2022-08-10 09:20:00,,0833.0,5.00,0.00,29.7,28.6,00.0,38.5,31.6,26.4,0000.0,0012.38,0005.81,0004.71
2022-08-10 09:21:00,,0833.0,5.00,0.00,29.7,28.6,00.0,38.5,31.7,26.3,0000.0,0012.27,0005.82,0004.71
2022-08-10 09:22:00,,0833.1,5.00,0.00,29.7,28.7,00.0,38.5,31.7,26.3,0000.0,0011.87,0005.81,0004.72
2022-08-10 09:23:00,,0833.1,5.00,0.00,29.8,28.7,00.0,38.5,31.7,26.3,0000.0,0012.01,0005.76,0004.72
2022-08-10 09:24:00,,0833.1,5.00,0.00,29.8,28.8,00.0,38.5,31.8,26.2,0000.0,0013.12,0005.72,0004.72
2022-08-10 09:25:00,,0833.1,5.00,0.00,29.8,28.8,00.0,38.6,31.7,26.1,0000.0,0013.43,0005.72,0004.72
2022-08-10 09:26:00,,0833.1,5.02,0.00,29.8,28.3,00.0,38.5,31.7,26.1,0000.0,0013.83,0005.73,0004.73
2022-08-10 09:27:00,,0833.2,4.99,0.00,29.8,27.7,00.0,38.5,31.5,26.2,0000.0,0013.74,0005.69,0004.72
2022-08-10 09:28:00,,0833.1,5.00,0.00,29.7,27.5,00.0,38.5,31.4,26.2,0000.0,0013.57,0005.62,0004.72
2022-08-10 09:29:00,,0833.1,5.00,0.00,29.6,27.5,00.0,38.5,31.4,26.4,0000.0,0013.67,0005.59,0004.73
2022-08-10 09:30:00,,0833.2,5.01,0.00,29.6,27.6,00.0,38.4,31.3,26.5,0000.0,0013.67,0005.55,0004.71
2022-08-10 09:31:00,,0833.2,5.00,0.00,29.6,27.7,00.0,38.4,31.4,26.5,0000.0,0013.43,0005.53,0004.70
2022-08-10 09:32:00,,0833.2,5.00,0.00,29.6,27.9,00.0,38.4,31.4,26.6,0000.0,0013.34,0005.49,0004.71
2022-08-10 09:33:00,,0833.1,4.99,0.00,29.6,28.0,00.0,38.4,31.4,26.6,0000.0,0013.48,0005.45,0004.70
2022-08-10 09:34:00,,0833.2,5.01,0.00,29.6,28.1,00.0,38.4,31.5,27.0,0000.0,0012.93,0005.45,0004.70
2022-08-10 09:35:00,,0833.1,5.00,0.00,29.6,28.2,00.0,38.4,31.5,26.7,0000.0,0011.66,0005.47,0004.70
2022-08-10 09:36:00,,0833.2,5.00,0.00,29.6,28.3,00.0,38.4,31.5,26.6,0000.0,0011.07,0005.46,0004.71
2022-08-10 09:37:00,,0833.1,5.00,0.00,29.6,28.4,00.0,38.4,31.6,26.6,0000.0,0010.82,0005.46,0004.71
2022-08-10 09:38:00,,0833.1,4.99,0.00,29.7,28.5,00.0,38.5,31.6,26.7,0000.0,0010.62,0005.51,0004.70
2022-08-10 09:39:00,,0833.2,5.01,0.00,29.7,28.6,00.0,38.5,31.6,26.4,0000.0,0010.62,0005.55,0004.69
2022-08-10 09:40:00,,0833.1,4.99,0.00,29.7,28.6,00.0,38.5,31.7,26.4,0000.0,0010.82,0005.58,0004.68
2022-08-10 09:41:00,,0833.1,5.01,0.00,29.7,28.7,00.0,38.5,31.7,26.3,0000.0,0010.95,0005.60,0004.68
2022-08-10 09:42:00,,0833.1,5.00,0.00,29.8,28.7,00.0,38.5,31.7,26.2,0000.0,0010.84,0005.58,0004.67
2022-08-10 09:43:00,,0833.1,5.00,0.00,29.8,28.8,00.0,38.5,31.8,26.2,0000.0,0010.85,0005.58,0004.67
2022-08-10 09:44:00,,0833.1,5.00,0.00,29.8,28.8,00.0,38.6,31.7,26.1,0000.0,0010.74,0005.64,0004.68
2022-08-10 09:45:00,,0833.1,5.00,0.00,29.8,28.9,00.0,38.6,31.8,26.0,0000.0,0010.87,0005.65,0004.68
2022-08-10 09:46:00,,0833.1,5.00,0.00,29.9,28.9,00.0,38.6,31.8,25.9,0000.0,0010.86,0005.66,0004.68
2022-08-10 09:47:00,,0833.2,4.99,0.00,29.9,28.6,00.0,38.6,31.8,25.9,0000.0,0010.75,0005.65,0004.66
2022-08-10 09:48:00,,0833.1,5.01,0.00,29.8,27.9,00.0,38.5,31.6,25.9,0000.0,0010.55,0005.61,0004.66
2022-08-10 09:49:00,,0833.1,5.00,0.00,29.8,27.6,00.0,38.5,31.5,26.0,0000.0,0010.72,0005.54,0004.65
2022-08-10 09:50:00,,0833.2,5.00,0.00,29.7,27.6,00.0,38.5,31.4,26.1,0000.0,0010.83,0005.52,0004.64
2022-08-10 09:51:00,,0833.2,5.00,0.00,29.7,27.6,00.0,38.5,31.4,26.2,0000.0,0010.60,0005.49,0004.63
2022-08-10 09:52:00,,0833.1,5.00,0.00,29.6,27.7,00.0,38.5,31.4,26.2,0000.0,0010.16,0005.44,0004.61
2022-08-10 09:53:00,,0833.1,4.99,0.00,29.6,27.9,00.0,38.5,31.4,26.3,0000.0,0010.28,0005.46,0004.61
2022-08-10 09:54:00,,0833.1,5.02,0.00,29.6,28.0,00.0,38.5,31.5,26.3,0000.0,0010.26,0005.46,0004.60
2022-08-10 09:55:00,,0833.2,5.01,0.00,29.6,28.1,00.0,38.5,31.5,26.2,0000.0,0010.25,0005.46,0004.57
2022-08-10 09:56:00,,0833.1,5.00,0.00,29.6,28.2,00.0,38.5,31.5,26.2,0000.0,0010.40,0005.50,0004.56
2022-08-10 09:57:00,,0833.2,5.00,0.00,29.7,28.3,00.0,38.5,31.6,26.2,0000.0,0010.39,0005.46,0004.56
2022-08-10 09:58:00,,0833.1,5.01,0.00,29.7,28.4,00.0,38.5,31.6,26.2,0000.0,0011.11,0005.49,0004.57
2022-08-10 09:59:00,,0833.2,5.01,0.00,29.7,28.5,00.0,38.5,31.6,26.2,0000.0,0011.52,0005.54,0004.57
